[[{"header":{"parameterUnit":"m.s-1","parameterCategory":1,"la1":30.2992,"la2":30.254,"lo1":-89.0895,"lo2":-89.0443,"dy":0.0025,"dx":0.0025,"nx":19,"ny":19,"refTime":"2026-04-02T03:00:00:Z","depth":0,"parameterNumber":2,"parameterNumberName":"U-component_of_WINDS"},"data":[0,0,0,-2.6675,-2.6675,-2.6656,-2.6656,-2.6651,-2.6651,0,0,0,0,0,0,0,0,0,0,0,-2.6691,-2.6692,-2.6675,-2.6675,-2.6656,-2.6656,-2.6651,-2.6651,0,0,0,0,0,0,0,0,0,0,0,-2.6691,-2.6691,-2.6692,-2.6675,-2.6656,-2.6656,-2.6651,-2.6659,0,0,0,0,0,0,0,0,0,0,-2.6673,-2.6699,-2.6691,-2.6692,-2.6675,-2.6656,-2.6656,-2.6659,-2.6658,-2.6668,0,-2.6678,0,-2.6665,-2.6652,-2.6652,0,0,0,-2.6667,-2.6699,-2.6685,-2.6692,-2.6675,-2.6656,-2.6662,-2.6658,-2.6658,-2.6667,-2.6678,-2.6678,-2.6665,-2.6652,-2.6652,-2.6733,-2.6734,0,0,-2.6668,-2.6694,-2.6685,-2.6685,-2.6688,-2.6663,-2.6662,-2.6657,-2.6671,-2.6678,-2.6677,-2.6665,-2.6652,-2.6653,-2.6733,-2.6734,0,0,0,-2.6676,-2.6695,-2.668,-2.6686,-2.6681,-2.6663,-2.6661,-2.6672,-2.6665,-2.6677,-2.6665,-2.6652,-2.6653,-2.6732,-2.6733,-2.6795,0,0,0,-2.6676,-2.67,-2.6681,-2.6696,-2.6681,-2.6676,-2.6676,-2.6665,-2.6664,-2.6665,-2.6652,-2.6653,-2.6731,-2.6732,-2.6791,-2.6819,0,0,0,-2.6689,-2.6701,-2.6702,-2.6698,-2.6691,-2.6675,-2.6668,-2.6664,-2.6657,-2.6652,-2.6653,-2.673,-2.6732,-2.6788,-2.6814,-2.6848,0,0,0,-2.6709,-2.6757,-2.6703,-2.6753,-2.6691,-2.6714,-2.6667,-2.6683,-2.6687,-2.6653,-2.6731,-2.6733,-2.6787,-2.6811,-2.6845,-2.688,-2.6897,0,0,-2.6784,-2.6767,-2.6794,-2.6745,-2.6785,-2.6715,-2.6763,-2.6742,-2.6718,-2.673,-2.6731,-2.6792,-2.6814,-2.6847,-2.6989,-2.7003,0,0,0,-2.6827,-2.6846,-2.6851,-2.6856,-2.6841,-2.6831,-2.68,-2.6792,-2.6801,-2.6729,-2.6814,-2.6825,-2.6844,-2.686,-2.6871,-2.6885,-2.6742,-2.6741,-2.6741,-2.6969,-2.6936,-2.6978,-2.6944,-2.6949,-2.6917,-2.6919,-2.6903,-2.6868,-2.6889,-2.6892,-2.6981,-2.7001,-2.7009,-2.7025,-2.6909,-2.6909,-2.6909,-2.6909,-2.7075,-2.7097,-2.7051,-2.7074,-2.704,-2.706,-2.7032,-2.7007,-2.7021,-2.6977,-2.6991,-2.6944,-2.7026,-2.7037,-2.6914,-2.6913,-2.6912,-2.6912,-2.6912,-2.7163,-2.7168,-2.7158,-2.7163,-2.717,-2.7134,-2.7149,-2.7118,-2.7088,-2.7103,-2.7102,-2.71,-2.7094,-2.7105,-2.7105,-2.7105,-2.7106,-2.7106,-2.7106,-2.7258,-2.7245,-2.7262,-2.7252,-2.7251,-2.7246,-2.7216,-2.7215,-2.7205,-2.7181,-2.7181,-2.7144,-2.7041,-2.7015,-2.7111,-2.711,-2.7109,-2.7109,-2.7109,-2.7375,-2.7343,-2.7369,-2.7369,-2.7355,-2.7364,-2.7324,-2.7325,-2.7319,-2.7328,-2.7289,-2.7218,-2.7198,-2.7188,-2.7166,-2.7296,-2.7296,-2.7296,-2.7296,-2.7448,-2.7436,-2.7455,-2.7457,-2.7455,-2.7422,-2.7453,-2.7431,-2.7403,-2.7397,-2.7375,-2.7344,-2.7335,-2.732,-2.7307,-2.7286,-2.7444,-2.7444,-2.7444,-2.7518,-2.7504,-2.7536,-2.7508,-2.7495,-2.7485,-2.7513,-2.7517,-2.7479,-2.7449,-2.7392,-2.7386,-2.7336,-2.7321,-2.7288,-2.7269,-2.723,0,0]},{"header":{"parameterUnit":"m.s-1","parameterCategory":1,"la1":30.2992,"la2":30.254,"lo1":-89.0895,"lo2":-89.0443,"dy":0.0025,"dx":0.0025,"nx":19,"ny":19,"refTime":"2026-04-02T03:00:00:Z","depth":0,"parameterNumber":3,"parameterNumberName":"V-component_of_WINDS"},"data":[0,0,0,3.4727,3.4728,3.4791,3.4792,3.487,3.487,0,0,0,0,0,0,0,0,0,0,0,3.4705,3.4706,3.4727,3.4728,3.4791,3.4792,3.487,3.487,0,0,0,0,0,0,0,0,0,0,0,3.4705,3.4706,3.4706,3.4729,3.4791,3.4792,3.4869,3.4823,0,0,0,0,0,0,0,0,0,0,3.4762,3.4739,3.4705,3.4706,3.4729,3.4791,3.4792,3.4821,3.4826,3.484,0,3.485,0,3.4862,3.4875,3.4876,0,0,0,3.473,3.4734,3.4755,3.4706,3.473,3.4791,3.4764,3.4824,3.4829,3.4846,3.4851,3.4854,3.4863,3.4876,3.4876,3.4951,3.4951,0,0,3.4727,3.4715,3.4751,3.4758,3.4747,3.4762,3.4765,3.4827,3.4832,3.4852,3.4856,3.4864,3.4876,3.4877,3.495,3.4951,0,0,0,3.4716,3.4712,3.4731,3.4755,3.4766,3.4763,3.4768,3.4829,3.4836,3.4857,3.4865,3.4877,3.4878,3.495,3.4951,3.4953,0,0,0,3.4714,3.4706,3.4729,3.4722,3.4765,3.4798,3.4768,3.4832,3.4839,3.4865,3.4877,3.4878,3.495,3.495,3.4953,3.4956,0,0,0,3.4702,3.4704,3.4713,3.4722,3.4748,3.4797,3.4808,3.4834,3.4844,3.4876,3.4879,3.495,3.495,3.4952,3.4955,3.4975,0,0,0,3.4686,3.4711,3.4712,3.4744,3.4748,3.4798,3.4808,3.4846,3.4873,3.4877,3.495,3.4951,3.4952,3.4954,3.4974,3.499,3.4995,0,0,3.471,3.4713,3.4733,3.4736,3.4784,3.479,3.4839,3.4874,3.4887,3.4929,3.4931,3.4953,3.4955,3.4975,3.5026,3.503,0,0,0,3.4737,3.4751,3.4766,3.4793,3.4822,3.4849,3.4879,3.4893,3.493,3.4906,3.4965,3.4967,3.4979,3.4987,3.499,3.5003,3.4953,3.4953,3.4953,3.4752,3.4771,3.4806,3.4834,3.486,3.4894,3.4918,3.4943,3.495,3.4965,3.4977,3.5006,3.5015,3.5018,3.5031,3.4986,3.4986,3.4986,3.4986,3.479,3.4815,3.4831,3.4871,3.4892,3.4926,3.4962,3.4968,3.5004,3.4997,3.5008,3.5,3.5022,3.5034,3.4987,3.4987,3.4987,3.4987,3.4987,3.4803,3.4818,3.4837,3.4882,3.4915,3.4943,3.4979,3.4996,3.5012,3.5023,3.5041,3.5041,3.5045,3.5031,3.5031,3.5031,3.5031,3.5031,3.5031,3.4808,3.483,3.4858,3.4897,3.4919,3.4951,3.499,3.5013,3.5043,3.5053,3.5053,3.5063,3.502,3.501,3.5033,3.5032,3.5032,3.5032,3.5032,3.4841,3.4838,3.4881,3.4905,3.4954,3.4989,3.5012,3.5059,3.508,3.5099,3.5108,3.5073,3.5076,3.5074,3.5066,3.5101,3.5101,3.5101,3.5101,3.4852,3.4857,3.4909,3.4946,3.4984,3.5012,3.5064,3.5097,3.513,3.5146,3.5143,3.5134,3.5131,3.5136,3.5132,3.5125,3.5175,3.5175,3.5175,3.4875,3.4886,3.4925,3.4959,3.5002,3.5038,3.509,3.5133,3.517,3.5179,3.5159,3.5156,3.5141,3.5135,3.5141,3.5135,3.5122,0,0]}]]